This demonstration page uses our WeatherBlox Daily Observations layout. Learn more.

Left ArrowRight Arrow

34.16533, -84.80231

Hourly Observations for October 4, 2015

Temp ( °F °C ) Dew Point ( °F °C ) Humidity (%) Winds ( mph kmh ) Pressure ( in mb ) Visibility ( mi km ) Precip ( " mm )
12:53 am 00:53 Cloudy 61 16.1 60 15.6 97 97 Calm 29.74 1007 10 16 0.01 0.25
1:50 am 01:50 Cloudy with Light Rain 61 16 61 16 100 100 Calm 29.74 1007 10 16 0.00 0.03
1:53 am 01:53 Cloudy with Light Rain 61 16.1 60 15.6 97 97 Calm 29.73 1007 10 16 0.00 0.03
2:23 am 02:23 Cloudy 61 16.1 60 15.6 97 97 Calm 29.74 1007 10 16 0.01 0.25
2:53 am 02:53 Cloudy 61 16.1 61 16.1 100 100 SSW 5 7 29.72 1007 10 16 0.01 0.25
3:32 am 03:32 Cloudy with Light Rain 61 16.1 61 16.1 100 100 Calm 29.74 1007 10 16 0.00 0.03
3:53 am 03:53 Cloudy 61 16.1 61 16.1 100 100 Calm 29.70 1006 10 16 0.00 0.03
4:08 am 04:08 Cloudy 61 16.1 61 16.1 100 100 Calm 29.71 1006 10 16 0.00 0.00
4:21 am 04:21 Cloudy 61 16.1 61 16.1 100 100 N 3 6 29.71 1006 10 16 0.00 0.00
4:53 am 04:53 Mostly Cloudy 61 16.1 61 16.1 100 100 Calm 29.70 1006 10 16 0.00 0.00
5:07 am 05:07 Mostly Cloudy 61 16.1 61 16.1 100 100 Calm 29.71 1006 10 16 0.00 0.00
5:15 am 05:15 Mostly Cloudy 61 16.1 61 16.1 100 100 Calm 29.74 1007 10 16 0.00 0.00
5:53 am 05:53 Cloudy 61 16.1 61 16.1 100 100 Calm 29.70 1006 10 16 0.00 0.00
6:53 am 06:53 Cloudy 62 16.7 61 16.1 96 96 Calm 29.73 1007 10 16 0.00 0.00
7:51 am 07:51 Cloudy with Mist and Fog 61 16 61 16 100 100 Calm 29.77 1008 2 3 0.00 0.00
7:53 am 07:53 Cloudy with Mist and Fog 61 16.1 61 16.1 100 100 Calm 29.73 1007 2 2 0.00 0.00
8:11 am 08:11 Cloudy with Mist and Fog 61 16.1 61 16.1 100 100 Calm 29.77 1008 3 5 0.00 0.00
8:53 am 08:53 Cloudy 62 16.7 61 16.1 96 96 NNW 5 7 29.76 1008 10 16 0.00 0.00
9:53 am 09:53 Cloudy 63 17.2 62 16.7 97 97 VRB 3 6 29.78 1008 10 16 0.00 0.00
10:19 am 10:19 Cloudy with Light Rain 63 17.2 62 16.7 97 97 Calm 29.80 1009 2 3 0.01 0.25
10:31 am 10:31 Cloudy with Light Rain 63 17.2 62 16.7 97 97 Calm 29.80 1009 4 6 0.01 0.25
10:53 am 10:53 Cloudy with Light Rain 63 17.2 62 16.7 97 97 Calm 29.78 1008 3 4 0.02 0.51
11:07 am 11:07 Cloudy with Light Rain 63 17.2 62 16.7 97 97 Calm 29.80 1009 4 6 0.01 0.25
11:16 am 11:16 Cloudy with Rain 63 17.2 62 16.7 97 97 Calm 29.83 1010 2 3 0.03 0.76
11:28 am 11:28 Cloudy with Light Rain 63 17.2 63 17.2 100 100 Calm 29.83 1010 3 5 0.04 1.02
11:53 am 11:53 Cloudy with Light Rain 64 17.8 63 17.2 96 96 Calm 29.80 1009 4 6 0.05 1.27
11:59 am 11:59 Cloudy with Light Rain 64 17.8 63 17.2 96 96 Calm 29.83 1010 3 4 0.00 0.03
12:14 pm 12:14 Cloudy with Light Rain 63 17.2 63 17.2 100 100 NW 3 6 29.83 1010 3 5 0.01 0.25
12:41 pm 12:41 Cloudy with Light Rain 64 17.8 64 17.8 100 100 VRB 5 7 29.83 1010 6 10 0.02 0.51
12:53 pm 12:53 Cloudy 65 18.3 63 17.2 93 93 NNW 3 6 29.81 1010 10 16 0.02 0.51
1:18 pm 13:18 Cloudy 65 18.3 64 17.8 97 97 Calm 29.83 1010 10 16 0.00 0.00
1:53 pm 13:53 Cloudy 66 18.9 64 17.8 93 93 VRB 6 9 29.80 1009 10 16 0.00 0.00
2:53 pm 14:53 Cloudy 65 18.3 64 17.8 97 97 N 3 6 29.79 1009 7 11 0.01 0.25
3:10 pm 15:10 Cloudy 65 18.3 64 17.8 97 97 NNW 5 7 29.83 1010 8 13 0.00 0.00
3:24 pm 15:24 Cloudy with Light Rain 65 18.3 64 17.8 97 97 N 3 6 29.83 1010 10 16 0.00 0.03
3:40 pm 15:40 Cloudy with Light Rain 65 18.3 65 18.3 100 100 Calm 29.83 1010 3 4 0.02 0.51
3:53 pm 15:53 Cloudy with Light Rain 65 18.3 64 17.8 97 97 Calm 29.80 1009 3 4 0.04 1.02
4:01 pm 16:01 Cloudy with Light Rain 65 18.3 65 18.3 100 100 Calm 29.83 1010 3 5 0.01 0.25
4:53 pm 16:53 Cloudy 66 18.9 65 18.3 96 96 Calm 29.81 1009 10 16 0.02 0.51
5:15 pm 17:15 Cloudy with Light Rain 66 18.9 65 18.3 96 96 Calm 29.83 1010 3 4 0.01 0.25
5:25 pm 17:25 Cloudy with Light Rain 66 18.9 65 18.3 96 96 Calm 29.85 1011 4 6 0.01 0.25
5:32 pm 17:32 Cloudy with Mist and Fog 66 18.9 65 18.3 96 96 Calm 29.85 1011 5 8 0.01 0.25
5:53 pm 17:53 Cloudy 66 18.9 65 18.3 96 96 Calm 29.82 1010 10 16 0.01 0.25
6:09 pm 18:09 Cloudy with Mist and Fog 66 18.9 65 18.3 96 96 Calm 29.85 1011 6 10 0.00 0.00
6:16 pm 18:16 Cloudy with Light Rain 66 18.9 65 18.3 96 96 Calm 29.85 1011 3 4 0.01 0.25
6:33 pm 18:33 Cloudy with Mist and Fog 66 18.9 65 18.3 96 96 Calm 29.85 1011 6 10 0.02 0.51
6:53 pm 18:53 Cloudy with Mist and Fog 66 18.9 65 18.3 96 96 Calm 29.84 1010 4 6 0.02 0.51
7:53 pm 19:53 Cloudy 66 18.9 65 18.3 96 96 Calm 29.83 1010 10 16 0.00 0.00
8:19 pm 20:19 Cloudy with Mist and Fog 66 18.9 65 18.3 96 96 Calm 29.88 1012 6 10 0.00 0.00
8:27 pm 20:27 Cloudy with Light Rain 66 18.9 65 18.3 96 96 Calm 29.88 1012 5 8 0.00 0.03
8:53 pm 20:53 Cloudy with Light Rain 66 18.9 65 18.3 96 96 Calm 29.85 1011 4 6 0.02 0.51
9:16 pm 21:16 Cloudy 66 18.9 65 18.3 96 96 Calm 29.88 1012 7 11 0.00 0.03
9:53 pm 21:53 Cloudy with Light Rain 66 18.9 65 18.3 96 96 Calm 29.87 1011 6 10 0.00 0.03
10:53 pm 22:53 Cloudy with Light Rain 66 18.9 66 18.9 100 100 Calm 29.88 1012 6 10 0.02 0.51
11:53 pm 23:53 Cloudy 66 18.9 65 18.3 96 96 Calm 29.88 1012 10 16 0.01 0.25

Powered by AerisWeather